Reading, PA

1:21 PM EST on December 06, 2019 (GMT -0500)
Reading Regional-Spaatz

Weather History for KRDG - August, 2019

Change the Weather History Date:

Saturday, August 31, 2019

  Actual Average Record
Temperature  
Mean Temperature 74 °F 71 °F  
Max Temperature 82 °F 81 °F 100 °F (1953)
Min Temperature 64 °F 60 °F 42 °F (1976)
Degree Days  
Heating Degree Days 0 0  
Month to date heating degree days 0 0  
Since 1 June heating degree days 16 29  
Since 1 July heating degree days 0 5  
Cooling Degree Days 8 6  
Month to date cooling degree days 324 251  
Year to date cooling degree days 1062 803  
Since 1 June cooling degree days 957 743  
Growing Degree Days 24 (Base 50)    
Moisture  
Dew Point 57 °F    
Average Humidity 63    
Maximum Humidity 100    
Minimum Humidity 31    
Precipitation  
Precipitation 0.00 in 0.11 in 2.44 in (1922)
Month to date precipitation 1.93 3.64  
Year to date precipitation 40.22 28.96  
Sea Level Pressure  
Sea Level Pressure 30.22 in    
Wind  
Wind Speed 3 mph ()    
Max Wind Speed 12 mph    
Max Gust Speed 20 mph    
Visibility 10.0 miles    
Events      
T = Trace of Precipitation, MM = Missing Value Source: Averaged Metar Reports

Daily Weather History Graph

Daily Weather History Graph

Search for Another Location

Airport or City:

Astronomy

Aug. 31, 2019 Rise Set
Actual Time 6:30 AM EDT 7:37 PM EDT
Civil Twilight 6:01 AM EDT 8:05 PM EDT
Nautical Twilight 5:28 AM EDT 8:38 PM EDT
Astronomical Twilight 4:53 AM EDT 9:13 PM EDT
Moon 7:43 AM EDT (8/31) 8:49 PM EDT (8/31)
Length of Visible Light 14h 03m
Length of Day
13h 07m
New Moon, 2% of the Moon is Illuminated
Aug 31
New Moon
Sep 5
First Quarter
Sep 14
Full
Sep 21
Last Quarter
Sep 28
New

Hourly Weather History & Observations

Time (EDT) Temp. Heat Index Dew Point Humidity Pressure Visibility Wind Dir Wind Speed Gust Speed Precip Events Conditions
12:54 AM 68.0 °F - 66.9 °F 96% 30.11 in 10.0 mi Calm Calm - N/A   Clear
1:54 AM 68.0 °F - 66.0 °F 93% 30.12 in 10.0 mi Calm Calm - N/A   Partly Cloudy
2:54 AM 66.0 °F - 66.0 °F 100% 30.12 in 10.0 mi NNW 3.5 mph - N/A   Clear
3:54 AM 66.9 °F - 64.0 °F 90% 30.14 in 10.0 mi Calm Calm - N/A   Scattered Clouds
4:54 AM 66.0 °F - 64.0 °F 93% 30.14 in 10.0 mi Calm Calm - N/A   Clear
5:54 AM 66.9 °F - 62.1 °F 84% 30.17 in 10.0 mi NW 3.5 mph - N/A   Clear
6:54 AM 66.0 °F - 62.1 °F 87% 30.20 in 10.0 mi NNW 3.5 mph - N/A   Partly Cloudy
7:54 AM 66.9 °F - 61.0 °F 81% 30.22 in 10.0 mi North 5.8 mph - N/A   Mostly Cloudy
8:54 AM 70.0 °F - 59.0 °F 68% 30.24 in 10.0 mi NNE 5.8 mph - N/A   Scattered Clouds
9:54 AM 72.0 °F - 57.9 °F 61% 30.25 in 10.0 mi ENE 4.6 mph - N/A   Scattered Clouds
10:54 AM 73.0 °F - 55.9 °F 55% 30.26 in 10.0 mi NNE 5.8 mph - N/A   Partly Cloudy
11:54 AM 75.0 °F - 57.0 °F 53% 30.26 in 10.0 mi NNE 8.1 mph - N/A   Partly Cloudy
12:54 PM 77.0 °F - 54.0 °F 45% 30.25 in 10.0 mi North 8.1 mph - N/A   Clear
1:54 PM 80.1 °F 80.0 °F 54.0 °F 40% 30.24 in 10.0 mi NE 5.8 mph - N/A   Clear
2:54 PM 81.0 °F - 52.0 °F 36% 30.23 in 10.0 mi NE 6.9 mph - N/A   Clear
3:54 PM 82.0 °F - 52.0 °F 35% 30.22 in 10.0 mi WNW 4.6 mph - N/A   Clear
4:54 PM 82.0 °F - 48.9 °F 31% 30.22 in 10.0 mi NNW 9.2 mph - N/A   Clear
5:54 PM 80.1 °F - 51.1 °F 36% 30.23 in 10.0 mi North 8.1 mph - N/A   Clear
6:54 PM 78.1 °F - 50.0 °F 37% 30.24 in 10.0 mi North 5.8 mph - N/A   Clear
7:54 PM 73.0 °F - 51.1 °F 46% 30.25 in 10.0 mi North 4.6 mph - N/A   Clear
8:54 PM 70.0 °F - 53.1 °F 55% 30.26 in 10.0 mi North 3.5 mph - N/A   Clear
9:54 PM 68.0 °F - 54.0 °F 61% 30.28 in 10.0 mi Calm Calm - N/A   Clear
10:54 PM 66.9 °F - 55.0 °F 66% 30.28 in 10.0 mi NNW 3.5 mph - N/A   Clear
11:54 PM 66.0 °F - 55.0 °F 68% 30.29 in 10.0 mi Calm Calm - N/A   Clear